Location: Waco, TX
(31.5480°N, 97.1670°W)
Time: 16:33:45
(UTC-06:00)

ISS - Pass Details

Date: 18 January 2018
Orbit: 402 x 407 km, 51.6° (Epoch: 22 January)

Event Time Altitude Azimuth Distance (km) Brightness Sun altitude
Rises 20:06:58 0° 185° (S) 2,295 - -28.7°
Reaches altitude 10° 20:09:52 10° 156° (SSE) 1,442 - -29.3°
Maximum altitude 20:11:27 13° 126° (SE) 1,273 - -29.7°
Drops below altitude 10° 20:13:03 10° 96° (E) 1,447 - -30.0°
Sets 20:15:58 0° 68° (ENE) 2,310 - -30.6°
